Flag for Germany Weather past 2 weeks in Riesa, Saxony, Germany

Now
59 °F

Overcast.


Feels Like: 59 °F
Forecast: 46 / 67 °F
Wind: 1 mph from North

Location: Dresden-Klotzsche

Current Time: May 22, 2015 at 9:39:08 PM

Latest Report: May 22, 2015 at 9:00 PM


Visibility: 28 mi

Pressure: 30.19 "Hg

Humidity: 46%

Dew point: 39 °F

Location of RiesaLocation

Historic Weather in Riesa — Graph

°F

Riesa temperature yesterday

Maximum temperature yesterday: 61 °F (at 6:00 PM)
Minimum temperature yesterday: 48 °F (at 6:00 AM)
Average temperature yesterday: 53 °F

Past Weeks' High & Low Weather Summary

 TemperatureHumidityPressure
High76 °F (May 12, 3:00 PM)97% (May 15, 6:00 AM)30.41 "Hg (May 15, 6:00 AM)
Low37 °F (May 15, 6:00 AM)28% (May 11, 12:00 PM)29.67 "Hg (May 19, 3:00 AM)
Average56 °F62%30.07 "Hg
* Reported May 7 8:00 PM — May 22 8:00 PM, Riesa, Weather by CustomWeather, © 2015

Note: Actual official high and low records may vary slightly from our data, if they occured in-between our weather recording intervals... More about our weather records

Advertising

Riesa weather history for previous 24 hours

 ConditionsComfort  
Time TempWeatherWind HumidityBarometerVisibility
8:00 PM
Fri, May 22
63 °FOvercast.1 mph38%30.19 "Hg28 mi
7:00 PM63 °FPartly sunny.2 mph36%30.19 "Hg28 mi
6:00 PM64 °FScattered clouds.3 mph36%30.20 "Hg25 mi
5:00 PM65 °FPartly sunny.2 mph38%30.22 "Hg25 mi
4:00 PM63 °FPartly sunny.3 mph38%30.23 "Hg25 mi
3:00 PM63 °FPartly sunny.3 mph39%30.25 "Hg25 mi
2:00 PM60 °FPartly sunny.3 mph39%30.27 "Hg25 mi
1:00 PM60 °FPartly sunny.2 mph44%30.29 "Hg28 mi
12:00 PM58 °FPartly sunny.3 mph47%30.31 "Hg28 mi
10:00 AM55 °FPassing clouds.2 mph55%30.33 "Hg25 mi
9:00 AM53 °FSunny.1 mph64%30.34 "Hg22 mi
8:00 AM49 °FSunny.2 mph75%30.34 "Hg22 mi
7:00 AM45 °FSunny.2 mph86%30.34 "Hg22 mi
6:00 AM44 °FSunny.2 mph79%30.34 "Hg25 mi
4:00 AM44 °FPassing clouds.2 mph78%30.34 "Hg28 mi
3:00 AM44 °FPassing clouds.1 mph75%30.34 "Hg28 mi
2:00 AM45 °FPassing clouds.2 mph74%30.33 "Hg28 mi
1:00 AM47 °FPassing clouds.2 mph69%30.32 "Hg25 mi
12:00 AM48 °FPassing clouds.2 mph70%30.32 "Hg25 mi
10:00 PM
Thu, May 21
51 °FPassing clouds.2 mph66%30.29 "Hg22 mi
9:00 PM54 °FPassing clouds.2 mph58%30.26 "Hg22 mi
Weather by CustomWeather, © 2015

See weather overviewHow to use our weather pages